EHI
36 35 32 29 25 20 15 11 9 7 4 2 1 0 1 0 0 0 0 1 2 2 1 1 2 2 1 2 2 2 1 1 2 1 0 0 0 0 0 0 0 0 0
37 35 31 28 25 21 17 13 10 7 4 2 1 1 1 1 0 1 1 1 3 4 4 4 5 5 3 3 2 2 1 2 3 3 2 1 0 0 0 0 0 0 0
39 36 31 27 25 20 18 17 13 8 4 2 1 1 2 2 2 3 3 3 4 6 8 7 7 7 5 4 3 1 2 4 5 5 4 2 0 0 0 0 0 0 0
38 37 31 27 23 18 15 17 15 10 5 3 1 1 3 3 3 4 5 5 4 5 7 9 8 7 6 5 4 3 3 5 6 6 4 2 0 0 0 0 0 0 0
36 36 31 25 21 16 13 13 13 11 8 5 2 2 4 4 4 4 5 6 5 4 5 8 9 7 6 7 6 4 3 4 4 3 1 0 0 0 0 0 0 0 0
34 33 28 22 19 17 14 12 11 11 10 7 3 1 3 4 4 5 5 6 5 4 4 5 7 6 6 6 6 4 2 2 1 0 0 0 0 0 0 0 0 0 0
33 30 24 20 18 18 17 14 13 12 11 8 3 1 3 3 4 5 5 5 4 4 3 3 5 6 5 4 4 3 2 2 2 1 1 0 0 0 0 0 0 0 0
32 27 22 19 18 18 17 15 15 14 11 8 5 3 3 3 3 3 4 4 4 4 2 1 3 5 5 5 4 4 3 4 4 3 2 1 0 0 0 0 0 0 0
29 26 22 19 17 17 15 15 16 15 11 9 7 5 4 3 2 2 3 3 4 4 2 0 2 5 6 6 5 4 5 6 5 4 2 1 0 0 0 0 0 0 0
24 23 22 19 17 16 15 15 15 13 11 9 7 5 4 3 2 2 2 3 4 4 1 0 1 4 5 6 5 5 5 6 5 3 2 1 0 0 0 0 0 0 0
23 22 20 18 16 15 14 14 13 11 9 8 6 5 4 4 3 2 2 2 3 2 1 1 3 3 4 4 4 4 4 4 3 1 1 0 0 0 0 0 0 0 0
23 21 18 16 14 12 11 11 11 10 8 7 5 4 4 4 4 2 1 1 1 1 1 3 4 4 3 3 3 2 1 1 1 0 0 0 0 0 0 0 0 0 0
21 19 16 14 11 8 8 8 9 8 7 7 6 5 4 4 4 2 1 0 0 0 2 4 5 4 3 3 2 1 0 0 0 0 0 0 0 0 0 0 0 0 0
17 16 14 11 8 7 6 7 7 7 7 7 7 6 5 4 4 2 1 1 0 0 1 2 4 5 4 4 2 1 0 0 0 0 0 0 0 0 0 0 0 0 0
15 14 13 11 9 7 6 6 6 6 7 7 7 6 6 5 4 3 3 2 2 1 0 0 2 3 4 4 2 1 0 0 0 0 0 0 0 0 0 0 0 0 0
12 12 12 11 9 7 6 6 6 6 6 6 6 6 6 6 5 4 5 4 3 2 1 1 1 2 4 4 2 1 0 0 0 0 0 0 0 0 0 0 0 0 0
11 11 11 10 9 7 6 6 6 6 6 6 6 6 6 6 6 6 5 4 4 3 2 2 1 3 4 4 1 0 0 0 0 0 0 0 0 0 0 0 0 0 0
11 11 10 10 9 7 6 6 6 6 6 6 6 6 6 6 6 5 4 3 3 3 2 1 2 3 4 3 1 0 0 0 0 0 0 0 0 0 0 0 0 0 0
11 10 9 9 9 6 5 4 4 4 4 4 4 5 6 5 4 2 2 3 3 2 1 0 1 1 3 2 1 0 0 0 0 0 0 0 0 0 0 0 0 0 0
10 9 8 8 7 5 4 4 3 3 3 3 3 4 4 3 2 1 1 3 3 1 0 0 0 1 2 2 1 0 0 0 0 0 0 0 0 0 0 0 0 0 0
10 9 8 7 6 5 4 4 4 3 3 3 3 2 2 1 0 0 1 2 2 1 0 0 0 0 1 1 1 0 0 0 0 0 0 0 0 0 0 0 0 0 0
9 8 7 6 5 4 3 3 3 3 3 3 3 1 0 0 0 0 1 1 1 0 0 0 0 0 0 0 0 0 0 0 0 0 0 0 0 0 0 0 0 0 0
6 6 5 4 4 3 2 2 3 3 3 3 2 1 1 1 1 0 0 0 0 0 0 0 0 0 0 0 0 0 0 0 0 0 0 0 0 0 0 0 0 0 0
4 4 4 3 3 1 0 1 2 3 3 2 1 1 2 3 2 0 0 0 0 0 0 0 0 0 0 0 0 0 0 0 0 0 0 0 0 0 0 0 0 0 0
4 4 4 3 2 1 0 0 1 2 2 1 0 0 1 2 1 0 0 0 0 0 0 0 0 0 0 0 0 0 0 0 0 0 0 0 0 0 0 0 0 0 0
4 4 4 3 2 1 0 0 1 2 1 0 0 0 0 1 0 0 0 0 0 0 0 0 0 0 0 0 0 0 0 0 0 0 0 0 0 0 0 0 0 0 0
Wind_Speed
1 1 1 1 1 1 1 1 1 1 3 3 3 3 3 2 2 1 1 3 3 4 4 4 5 6 6 6 6 6 6 6 6 7 7 8 9 9 10 10 10 10 10
1 1 1 1 1 0 1 2 1 1 2 2 2 2 2 2 2 1 1 2 4 5 5 5 5 6 6 7 6 6 6 6 6 7 7 8 8 9 11 11 11 10 10
2 1 1 1 0 1 1 1 1 1 2 2 2 2 1 2 2 2 2 2 2 5 7 6 6 6 6 7 7 6 6 6 6 7 6 7 8 8 9 10 11 11 11
2 1 1 1 1 1 0 1 0 1 2 2 2 2 2 2 3 3 3 3 2 2 5 7 7 7 6 7 7 7 7 6 6 6 7 6 7 7 8 9 9 10 10
2 1 1 1 1 1 1 1 0 1 2 2 3 2 2 2 2 3 3 3 3 2 2 5 7 8 7 7 8 8 8 7 7 7 7 7 6 7 7 8 9 9 9
2 1 1 1 1 1 1 1 1 1 2 2 4 3 3 2 2 2 3 2 2 3 3 3 3 5 8 8 8 8 8 8 8 8 8 8 7 6 7 8 10 10 10
2 2 1 1 1 1 1 1 1 2 2 1 2 3 3 3 2 2 2 2 2 2 2 2 2 2 3 7 7 8 8 8 8 9 9 8 8 7 7 8 10 11 11
2 2 1 1 1 1 1 2 1 1 2 1 1 2 2 2 1 3 2 2 2 2 2 2 2 2 2 2 4 7 8 8 9 9 9 9 8 8 8 8 9 10 11
2 2 2 1 1 1 1 2 1 2 2 2 1 1 2 2 3 2 2 2 2 2 2 2 3 2 3 2 2 5 7 7 8 8 8 7 8 8 9 8 9 10 11
2 1 1 1 1 1 1 1 1 2 2 3 2 1 2 1 2 3 3 2 2 3 3 3 3 2 2 2 3 5 7 7 7 8 8 8 8 8 9 9 9 10 11
2 2 2 2 1 1 0 1 1 2 2 2 2 2 3 2 2 3 4 4 3 3 2 3 2 2 2 2 3 4 7 8 8 8 8 8 9 9 9 9 10 11 12
2 2 2 1 1 1 1 1 1 1 2 2 2 3 3 2 2 2 4 4 4 3 3 2 2 2 2 2 4 6 8 9 9 9 9 9 9 9 9 10 10 11 12
2 2 1 1 1 1 1 1 1 2 2 3 3 3 3 3 2 3 3 4 5 4 4 3 2 2 2 2 2 5 7 9 10 10 10 10 10 10 10 10 10 11 12
2 2 1 1 1 1 2 1 1 2 2 3 4 3 3 3 3 3 3 3 5 5 4 4 2 2 2 2 3 6 5 9 10 10 11 11 11 11 11 11 10 10 10
1 2 2 1 1 1 1 2 2 2 2 3 3 3 3 3 3 3 3 2 3 5 6 5 3 3 2 2 3 4 4 6 8 10 11 11 12 11 11 11 11 11 10
1 2 1 1 2 2 1 1 2 2 3 3 3 4 3 3 3 3 3 3 3 4 5 4 4 4 3 3 4 4 4 7 10 11 12 12 12 12 12 12 12 11 11
1 1 1 2 2 2 2 2 3 3 4 4 4 4 4 4 3 3 3 3 3 3 5 5 4 4 4 4 4 4 4 5 6 11 12 12 12 12 12 12 12 11 12
1 1 1 1 2 2 2 3 3 4 4 4 4 4 4 4 3 3 3 4 4 4 4 6 5 4 5 4 4 5 4 5 4 7 10 11 11 12 12 12 12 11 12
1 1 1 1 2 2 2 3 3 4 4 4 4 4 4 4 4 3 4 4 4 5 4 5 6 4 4 4 3 4 4 3 4 5 7 8 10 11 11 12 12 12 13
1 1 1 2 2 1 2 2 3 4 4 4 4 4 4 4 4 4 5 4 5 5 5 5 5 4 4 3 2 3 3 3 4 4 4 5 8 10 11 12 12 13 13
1 1 1 2 2 2 2 2 3 5 4 4 4 4 5 4 4 4 5 5 5 4 5 5 5 4 4 3 3 3 4 3 4 3 2 3 3 4 6 9 11 12 12
1 1 1 2 3 3 3 4 3 4 5 5 5 4 5 3 4 5 7 8 7 6 5 5 5 5 5 4 3 4 4 3 4 2 2 4 4 4 5 4 8 11 12
1 1 1 2 2 2 3 4 5 4 5 5 5 4 5 5 4 5 6 7 7 8 8 6 6 6 6 5 4 5 4 4 5 4 3 5 4 5 5 6 9 10 11
1 2 2 3 2 3 3 5 6 5 5 5 5 4 4 4 4 5 6 6 6 6 7 6 5 6 6 5 5 5 5 5 5 4 4 4 4 4 5 4 7 9 10
2 2 2 3 2 2 3 4 5 4 4 5 5 4 3 2 4 5 5 6 7 6 7 7 7 8 8 9 6 3 4 4 5 4 3 3 4 4 4 4 5 9 10
2 3 3 2 2 1 2 3 5 4 4 4 4 3 3 3 4 5 5 5 7 7 7 7 6 7 6 7 8 5 4 4 5 4 3 3 3 3 3 3 3 3 5
Wind_Direction
163 171 148 162 212 196 191 244 243 263 269 277 283 293 301 313 327 355 149 173 191 204 218 236 250 256 257 257 254 252 252 249 246 238 230 230 232 229 226 224 223 223 224
142 172 175 167 208 228 204 247 262 259 264 278 280 291 308 318 313 306 258 206 204 215 221 231 246 256 257 255 252 255 254 253 250 247 238 235 233 232 230 226 222 219 220
146 165 180 163 211 255 228 238 274 275 266 270 277 286 282 287 277 269 253 236 220 218 221 226 233 244 250 250 248 248 249 252 251 248 243 238 231 231 231 230 224 221 220
151 169 179 141 225 254 247 233 305 293 297 301 296 281 266 253 254 246 240 236 231 227 212 219 227 234 246 251 250 252 251 252 250 246 244 243 238 230 226 224 223 222 221
166 174 162 144 222 209 260 277 231 284 291 293 278 255 253 248 248 256 249 243 240 227 210 208 218 228 237 244 244 246 250 251 248 246 247 246 245 236 228 222 221 220 219
169 169 176 182 230 210 237 284 287 265 269 275 288 296 273 253 235 244 245 246 236 238 235 210 205 226 234 237 241 245 250 253 250 248 250 250 245 244 240 232 223 221 222
176 208 190 191 225 216 233 262 261 265 262 272 295 296 274 247 228 241 236 236 242 246 244 234 212 224 218 228 231 238 246 251 253 251 248 247 245 247 248 243 230 227 225
186 202 187 201 213 239 232 247 249 271 275 257 282 300 295 276 283 268 244 236 243 248 248 265 237 232 234 201 216 231 243 247 249 250 250 248 247 247 250 249 237 234 231
179 194 195 222 241 228 232 246 265 271 282 285 247 272 297 309 320 290 282 271 248 240 244 246 246 236 226 220 207 217 231 238 243 246 248 247 246 245 248 255 249 244 239
177 171 173 200 255 265 276 269 283 290 284 291 288 250 254 287 298 310 308 293 279 262 249 261 268 256 233 216 214 210 218 222 231 240 245 244 243 246 247 249 253 250 247
180 167 172 190 211 247 262 300 306 294 291 293 300 300 291 278 253 263 294 302 294 277 259 248 247 241 236 225 217 208 209 212 220 231 241 243 244 247 250 251 253 250 248
175 172 172 179 213 254 274 271 263 262 277 286 289 290 292 290 289 281 282 288 290 288 279 266 245 233 227 228 236 225 211 213 219 226 234 240 241 247 252 254 255 254 249
175 180 171 178 210 247 254 268 268 273 275 284 285 287 290 287 291 293 288 292 296 291 285 274 246 232 238 222 218 219 217 218 220 223 228 234 237 241 246 252 255 256 256
174 148 166 202 218 242 266 285 283 282 279 276 283 284 284 284 280 276 273 286 295 295 290 287 280 252 247 237 222 217 223 225 223 223 225 226 231 236 242 245 247 251 253
169 147 179 206 223 235 246 257 254 268 274 273 276 281 284 283 280 276 274 269 274 290 293 294 293 279 257 247 211 226 226 227 229 229 228 227 230 232 237 239 240 242 245
149 165 180 211 223 237 245 263 269 265 268 267 268 273 277 280 289 291 290 279 262 265 280 282 284 288 287 285 255 249 243 233 233 230 229 230 231 230 232 233 236 237 239
193 188 209 229 234 233 239 248 257 263 267 272 275 280 280 284 286 288 290 286 281 272 277 284 283 288 286 279 264 253 242 230 231 227 226 227 228 228 228 230 233 235 239
223 238 235 229 241 244 246 251 263 273 274 280 284 285 285 286 288 289 290 289 287 275 270 282 284 280 276 272 260 256 263 254 240 234 227 228 228 228 229 230 231 234 237
268 283 270 253 259 263 272 277 282 287 287 287 288 289 290 286 282 286 284 286 289 289 278 274 279 277 273 277 280 278 277 274 267 256 234 231 229 230 231 232 231 232 233
279 278 285 285 284 293 299 317 316 295 292 292 291 293 293 288 283 287 285 284 287 293 290 287 284 285 283 282 286 284 289 281 280 279 261 243 236 234 234 236 235 234 233
284 306 318 314 309 307 328 329 307 297 298 294 296 295 292 294 302 296 294 294 293 286 286 285 287 293 294 299 293 289 291 288 278 268 268 264 253 239 232 237 240 239 236
298 303 319 315 315 321 341 336 318 305 298 292 289 290 289 283 294 294 289 284 276 278 288 286 287 290 290 292 294 290 292 299 291 273 277 272 260 251 239 230 232 230 231
302 306 302 306 313 326 332 329 319 297 289 285 284 284 293 304 318 311 302 292 280 270 258 260 274 281 287 290 290 288 285 286 282 273 273 271 261 257 248 245 227 224 226
294 292 292 295 296 315 328 322 319 294 282 285 286 285 293 301 313 308 295 294 287 284 272 258 258 268 278 278 273 273 274 280 278 266 254 261 257 260 260 250 236 226 226
266 275 283 283 293 310 311 319 325 304 307 305 297 301 294 297 308 317 303 295 295 296 296 288 271 269 273 275 273 280 283 281 284 276 252 261 270 276 265 254 242 231 230
271 269 271 273 271 271 288 310 319 304 313 310 303 294 305 309 312 317 302 296 292 296 304 304 295 283 269 264 256 237 251 269 280 279 258 250 266 280 279 259 245 234 236